STARLINK-31846, 60126

Orbit data source: Space-Track

STARLINK-31846, 60126 is a payload satellite owned by SpaceX/Seattle (US) in LEO that was launched on Mon, 24 Jun 2024 UTC via an FALCON 9 launch vehicle from the Air Force Western Test Range (AFWTR). Payload-class satellites include a variety of spacecraft equipped with specific instruments for various scientific and technological missions. These include communications satellites like Starlink; space stations such as the ISS; scientific satellites like the Hubble; Earth observation satellites from companies like Planet Labs, Umbra, and HawkEye 360; GPS; miniature CubeSats for education and research; and military/defense satellites.

Loading next visibility...
Identifier
60126, 2024-118P
Orbit
LEO
Last TLE update
9 hours ago
Origin
Manufacturer
SpaceX/Seattle
Mission
Operational Commercial Communications
Bus & Motor
STARLINK V2M, Unknown motor
Mass
730 kg wet, ~700 kg dry
Launch date (UTC)
2024-06-24 (1 year ago)
Launch vehicle
FALCON 9
Launch site
Air Force Western Test Range (AFWTR)
Object type
Payload
Rocket body
Debris
Shape & HBR
Box + 2 Pan, 29 m
Radar Cross Section
33.884 m², Large (>1 m²)

Expand to show TLE details & history

TLE from 9 hours ago
0 STARLINK-31846
1 60126U 24118P   25182.07652475 -.00000221  00000-0  46623-5 0  9997
2 60126  53.1607 115.4124 0001470  94.2461 265.8708 15.30188505 58280
Epoch: 2025-07-01T01:50Z
TLE epoch observation values (Epoch: 2025-07-01T01:50:11.738Z)
Latitude
Longitude
168.48632°
Altitude
476.222 km
Speed
7.629 km/s
True Right ascension
07h 41m 38s
True Declination
0° 00' 00"
Sunlit
Object was in daylight at epoch
Visualization orbit readout
Latitude
-30.15424°
Longitude
12.43158°
Altitude
485.003 km
Speed
7.622 km/s
Apparent Right ascension
18h 13m 45s
Apparent Declination
-77° 03' 06"
Sunlit
Object is in full shadow
Visualization observer readout
Local Sidereal Time
22:16:01
Azimuth
193.416° SSW
Elevation
-32.744°
Doppler factor
1
Orbital elements
Apogee altitude
476.513 km
Perigee altitude
474.498 km
Semi-major axis
6,853.643 km
Eccentricity
0.00015
Inclination
53.1607°
RAAN
115.4124°
Arg. of periapsis
94.2461°
True anomaly
Unknown
Mean anomaly
265.8708°
Eccentric anomaly
Unknown
Mean motion
3.82526 °/min
Orbital period
94.11 mins
BSTAR
0.0000046623
Loading maneuver chart data...
Loading SW <> Apogee altitude chart data...
Loading historical data...
Loading historical data...
Loading historical data...
Loading historical data...
Loading historical data...
Loading historical data...
Loading historical data...

STARLINK-31846 Visibility forecast

Observer location: undefined°, undefined°

Span
Click to sort rows by Start time (UTC) header in descending order
Start Az.
Max El. time (UTC)
Max El. Az.
Max El.
End time (UTC)
End Az.
6 mins2025-07-01 22:24:32.268Z235.322° WSW2025-07-01 22:27:32.268Z26.532° NE41.66°2025-07-01 22:30:32.268Z47.64° ENE
4 mins2025-07-02 03:21:32.268Z341.377° N2025-07-02 03:23:32.268Z17.201° NNE17.06°2025-07-02 03:25:32.268Z56.212° ENE
6 mins2025-07-02 04:59:32.268Z311.292° NW2025-07-02 05:02:32.268Z120.925° SE42.799°2025-07-02 05:05:32.268Z129.543° SE
|